Wind_Speed
25 22 22 24 20 22 34 40 43 30 19 19 19 9 10 14 14 11 14 17 22 18 15 19 23 27 26 24 22 21 18 15 11 7 6 7 11 16 18 18 17 16 20 20 20 17 17 16 14
25 23 22 26 32 33 36 41 46 35 28 17 18 11 10 17 17 11 10 18 18 17 17 19 24 28 27 25 23 21 19 16 13 9 8 9 13 14 19 17 15 17 17 17 18 16 16 15 13
25 25 23 24 39 53 44 41 39 35 31 19 19 13 12 16 16 14 14 13 19 19 19 20 25 28 27 25 24 21 19 17 14 12 10 14 12 14 15 16 15 16 17 17 16 15 15 14 12
27 27 28 36 47 42 49 44 37 33 33 36 31 28 22 18 19 15 17 17 18 19 19 21 26 29 28 26 24 22 20 18 15 14 13 12 13 12 13 14 14 15 16 17 16 15 15 14 13
28 31 34 46 55 54 43 29 29 36 35 34 37 37 27 22 19 18 20 16 16 20 20 22 27 29 28 27 25 23 19 18 16 16 15 13 13 13 12 14 14 14 15 16 16 15 14 14 13
31 34 36 51 57 54 47 38 34 31 33 35 35 36 33 28 24 22 23 18 17 20 20 24 27 29 29 28 26 24 21 18 17 17 17 15 14 13 14 14 14 15 15 15 16 15 14 14 13
35 36 50 55 58 53 49 38 38 37 29 27 34 36 34 35 29 24 25 23 19 22 23 25 28 29 31 30 27 24 22 20 19 19 18 17 15 14 15 15 15 15 16 16 16 15 14 13 13
35 38 48 56 58 57 47 42 34 39 37 28 33 35 32 34 32 30 28 28 25 22 25 26 29 31 33 32 29 27 24 21 20 20 21 20 18 16 15 16 16 16 17 17 17 16 14 13 12
30 39 51 62 55 47 25 26 37 32 41 37 42 35 29 31 34 35 34 30 29 28 28 28 30 30 32 33 32 30 27 24 21 22 23 22 20 18 16 16 16 17 17 19 17 15 14 13 12
33 44 60 56 30 36 37 30 29 37 35 41 42 35 34 31 33 36 37 33 34 34 31 32 31 30 32 34 34 33 30 28 26 24 25 25 23 20 18 17 17 18 16 18 17 15 14 13 12
39 49 52 47 30 38 32 26 40 36 40 36 45 42 36 39 38 37 36 34 32 36 33 33 32 32 32 33 34 34 32 31 28 25 26 27 26 24 22 19 17 18 17 17 16 15 13 12 11
39 44 46 49 50 39 38 42 29 40 47 35 39 34 40 36 41 38 37 36 37 34 35 35 34 34 32 32 31 31 31 31 31 28 29 30 28 25 22 20 17 16 16 17 16 15 14 12 10
38 40 40 43 45 48 54 46 37 47 47 38 32 34 36 37 41 40 38 37 36 33 37 39 37 35 34 32 30 31 31 30 30 29 29 29 27 25 24 22 19 18 16 16 16 15 14 12 10
34 33 37 39 39 41 46 54 49 42 50 42 33 30 35 43 39 41 43 41 38 35 35 38 38 35 34 32 30 30 31 30 30 30 29 28 26 25 24 23 21 19 17 16 15 15 14 13 11
19 29 34 38 38 37 31 45 60 53 40 43 33 28 34 44 42 43 42 37 35 34 32 34 37 37 35 32 30 30 29 30 31 30 28 28 27 25 25 23 21 20 19 17 16 15 14 13 12
21 24 24 9 4 13 21 47 42 51 54 44 33 24 35 42 45 43 43 37 33 35 35 35 41 40 39 36 33 32 31 30 30 30 28 28 28 28 27 24 23 21 19 17 16 15 15 14 13
14 15 18 18 13 19 14 25 28 36 52 42 39 24 24 40 41 43 41 43 38 38 39 39 41 42 42 38 35 33 32 31 32 31 30 29 29 30 29 27 25 23 21 20 18 17 17 15 14
19 20 15 18 7 16 18 22 19 13 31 32 31 36 28 31 44 47 48 45 39 39 38 38 42 44 44 40 37 36 35 34 34 33 31 30 30 30 29 28 27 25 24 22 20 19 18 18 16
19 20 21 14 15 21 13 16 16 21 25 36 33 36 36 29 45 46 54 45 39 38 39 38 43 47 47 45 43 41 39 36 37 34 31 31 30 30 29 28 27 25 24 22 22 22 20 18 18
15 16 15 15 10 12 10 9 10 22 22 29 28 34 40 34 40 50 45 44 43 40 38 36 35 44 49 46 41 38 36 35 33 32 34 32 31 31 30 28 26 24 24 24 22 21 20 20 18
12 7 10 16 18 11 9 9 10 13 18 28 33 36 39 39 36 49 50 46 44 43 42 41 39 37 47 44 42 42 42 42 42 40 38 35 32 31 30 28 26 25 25 24 22 21 20 18 20
15 16 19 17 11 4 3 5 7 10 10 17 30 31 38 41 38 43 50 51 47 45 44 44 45 47 44 46 47 48 45 43 40 37 36 35 35 33 31 29 28 27 27 26 24 22 21 20 18
20 24 14 12 9 8 8 6 13 1 3 10 8 21 35 40 43 41 46 51 51 48 47 46 46 52 48 48 50 49 47 42 40 42 41 39 37 36 34 32 31 30 28 27 25 25 24 23 21
32 15 4 6 4 1 6 9 15 18 23 14 8 6 20 36 44 42 42 48 52 50 50 48 49 51 52 52 52 52 49 47 48 47 42 39 38 36 36 35 32 30 29 28 27 27 26 25 25
35 19 5 4 1 2 7 9 15 15 16 16 10 1 4 31 39 45 43 44 47 50 51 51 46 54 54 56 53 54 51 51 50 47 44 41 40 40 38 36 35 33 32 32 31 30 28 27 25
29 17 5 1 4 4 10 5 6 13 15 14 11 7 5 20 33 40 45 44 44 49 51 53 59 53 58 61 53 54 54 53 51 48 48 45 39 36 36 36 35 34 33 33 32 31 30 28 26
18 22 8 4 5 3 4 3 6 9 12 13 11 8 5 10 27 36 44 44 45 45 51 54 52 53 56 59 53 64 56 56 53 51 50 47 43 40 39 38 37 36 35 34 34 33 31 29 27
27 29 6 7 4 4 4 2 7 16 19 17 14 12 2 8 14 33 39 44 46 46 46 51 52 49 55 42 36 61 57 53 56 55 53 50 47 44 41 39 38 38 38 36 35 34 33 32 29
28 30 15 5 4 1 2 4 9 13 18 19 18 16 8 7 5 20 29 38 43 49 47 46 46 47 52 43 48 47 52 62 55 60 55 53 50 46 43 40 39 38 39 38 38 36 35 34 31
21 22 23 6 7 4 3 4 9 13 16 18 15 13 10 6 8 6 20 35 48 45 50 49 42 45 39 47 40 39 50 55 53 53 57 56 54 50 45 44 42 41 40 40 40 38 37 36 32
Wind_Direction
253 243 237 234 225 229 231 227 238 235 231 223 226 236 239 218 229 214 268 237 220 211 210 200 196 189 186 187 187 187 188 191 196 188 158 131 124 138 137 136 139 120 125 131 135 140 136 135 129
257 251 232 227 226 233 234 233 237 236 229 240 216 237 204 208 232 237 258 194 201 206 200 201 194 188 187 186 188 189 186 190 192 186 172 148 131 146 145 143 146 126 129 130 133 140 137 133 128
256 254 237 226 232 233 236 240 246 242 235 229 209 218 210 218 230 230 225 218 205 204 196 192 189 188 187 187 187 188 189 189 191 185 179 154 139 143 149 147 147 139 135 134 138 141 137 131 130
253 248 238 238 241 246 242 250 252 247 240 231 232 242 235 219 245 225 221 215 215 202 196 190 188 188 189 190 188 186 190 188 190 184 185 171 154 156 150 146 151 146 139 141 143 145 139 133 130
247 243 239 249 252 250 249 247 247 247 244 239 237 238 235 229 238 219 211 213 214 209 196 188 188 189 191 190 189 187 190 189 189 186 191 179 163 163 153 149 154 150 144 143 147 149 143 135 127
240 236 239 247 254 257 253 248 245 245 243 239 238 237 230 226 232 221 211 212 207 210 203 190 188 189 192 194 194 191 193 192 190 192 193 183 170 167 161 154 156 152 147 147 149 153 147 136 127
243 239 242 249 254 257 260 251 243 243 240 229 230 233 225 221 223 221 214 213 204 202 210 195 190 191 194 196 197 199 198 196 193 196 194 184 178 173 168 160 158 149 149 148 151 152 145 137 128
248 239 249 248 250 257 256 255 250 242 235 212 212 226 215 215 221 221 217 216 213 208 205 204 194 194 195 197 200 201 204 203 198 195 196 185 183 179 175 165 161 153 153 151 151 151 146 133 128
250 235 247 249 250 251 261 257 245 242 238 221 230 234 225 219 224 220 219 211 213 205 206 206 202 198 197 197 199 203 204 206 204 197 197 189 186 183 179 170 166 157 157 150 150 151 143 141 137
246 237 250 249 253 260 259 245 240 232 234 222 228 225 222 216 224 224 219 220 217 206 204 205 206 204 201 202 201 203 204 206 208 199 200 191 189 187 183 179 172 165 165 152 152 157 153 150 146
251 246 255 250 248 247 253 241 227 229 225 222 226 223 219 214 223 223 222 222 222 211 205 206 208 207 206 205 205 207 205 209 210 201 202 197 191 192 188 186 180 170 168 157 155 161 162 159 155
256 253 255 254 244 232 240 242 229 219 225 214 219 225 221 218 217 217 214 215 213 213 211 210 210 208 210 210 211 210 211 210 209 204 202 203 195 194 193 192 188 179 171 160 160 165 167 169 164
257 257 255 254 252 246 238 246 238 221 223 219 219 215 215 216 213 211 215 217 218 213 214 212 210 211 209 211 212 216 211 206 204 205 202 205 200 198 195 196 191 189 183 173 168 168 170 174 172
256 261 259 258 255 253 252 243 239 230 225 224 219 217 212 206 212 209 214 213 214 217 217 216 212 213 211 211 214 213 209 203 203 206 204 202 202 199 201 199 194 191 190 182 178 174 175 179 178
272 271 259 253 258 257 256 252 233 229 229 225 218 218 210 202 207 214 213 216 213 212 213 218 216 215 213 211 213 213 209 204 205 204 206 202 200 199 203 200 196 195 196 192 185 185 183 185 182
284 289 291 270 193 257 247 256 246 226 235 232 218 211 198 204 206 210 216 210 213 214 216 216 219 217 213 209 210 212 206 206 206 205 202 203 198 198 201 201 200 198 198 199 190 190 189 193 187
291 284 288 301 275 261 247 267 264 224 228 235 221 209 202 207 206 209 218 224 221 221 218 215 218 218 214 208 208 210 208 207 206 205 203 200 199 200 200 200 200 200 199 200 198 194 192 196 193
321 324 305 289 295 252 243 259 251 217 229 229 231 224 211 205 204 205 207 211 213 219 222 221 219 217 214 209 207 208 207 207 205 205 204 201 199 202 203 201 201 202 202 201 202 197 196 191 192
309 305 310 302 281 289 278 264 244 228 236 221 220 216 218 205 204 199 202 201 211 216 218 223 220 216 212 208 207 206 207 204 203 202 204 203 200 202 203 203 204 204 206 205 201 202 197 199 196
309 295 289 300 267 293 291 251 258 229 236 224 223 204 216 205 205 204 200 204 203 205 214 221 221 216 212 212 208 209 209 204 206 205 203 203 201 202 204 204 204 203 206 208 206 203 203 196 194
339 303 310 307 301 276 263 254 216 199 221 224 225 200 211 211 203 203 201 203 203 204 207 209 216 218 213 214 210 209 208 205 202 203 202 202 202 202 204 204 204 204 204 207 207 205 203 204 195
1 317 298 294 305 269 171 187 68 170 173 200 212 198 204 210 203 202 201 202 205 204 208 210 209 211 218 215 215 211 209 208 202 204 206 204 204 202 203 203 205 204 203 204 204 203 200 195 201
328 326 292 271 271 277 271 256 346 276 200 195 172 183 192 204 205 201 201 203 205 208 206 211 206 213 222 215 217 216 211 207 205 204 204 204 205 205 204 204 204 204 201 202 202 202 199 192 191
342 339 273 221 212 260 277 242 25 20 347 350 329 167 178 199 203 202 201 201 205 209 208 206 216 216 213 215 216 216 214 209 207 204 205 206 207 208 207 206 204 202 201 203 202 200 199 197 194
6 25 8 32 14 197 18 103 43 8 5 5 342 215 211 192 200 204 206 203 206 208 211 211 207 216 216 217 214 216 214 214 212 207 204 209 211 211 211 209 207 205 203 202 201 201 200 202 204
12 17 64 249 341 326 3 59 47 20 13 7 349 338 289 177 196 205 208 209 206 210 212 216 220 218 204 216 214 213 215 214 214 211 210 210 214 217 216 215 211 208 206 205 203 203 203 205 209
13 6 10 303 282 302 35 98 259 351 14 13 11 337 267 182 185 196 205 210 211 214 217 217 223 227 213 211 214 208 214 212 214 212 213 212 213 213 214 214 213 212 210 209 207 206 208 212 216
24 18 9 355 20 349 356 5 315 347 356 359 9 14 333 270 182 191 198 207 211 215 220 225 227 230 235 224 207 208 209 214 213 211 212 214 215 214 214 215 214 214 212 211 211 214 215 217 217
14 16 14 352 18 92 313 298 337 351 354 357 356 360 356 283 222 189 197 199 206 214 219 222 224 229 236 234 216 196 214 219 212 212 212 214 216 216 217 217 217 217 216 216 216 217 218 220 217
358 356 9 12 331 328 287 291 334 337 341 343 344 347 349 346 280 216 202 206 212 217 217 222 223 231 230 242 224 226 227 227 227 219 215 215 215 216 217 220 220 219 218 218 219 219 219 220 222
Height
3111 3111 3112 3115 3121 3107 3101 3104 3106 3114 3120 3120 3122 3123 3123 3124 3125 3129 3124 3123 3126 3129 3130 3130 3133 3137 3140 3144 3147 3150 3153 3154 3156 3157 3158 3157 3158 3159 3160 3161 3163 3164 3166 3168 3170 3172 3173 3175 3176
3106 3108 3108 3108 3105 3098 3092 3101 3099 3109 3118 3118 3118 3120 3119 3121 3123 3125 3123 3123 3125 3127 3128 3130 3132 3136 3139 3143 3147 3150 3153 3154 3156 3158 3159 3158 3160 3161 3162 3164 3166 3167 3168 3171 3172 3174 3176 3177 3178
3102 3103 3105 3101 3091 3080 3084 3095 3100 3108 3114 3117 3116 3117 3118 3121 3122 3123 3124 3124 3125 3126 3127 3129 3131 3135 3138 3142 3146 3150 3153 3155 3157 3159 3160 3160 3161 3163 3164 3166 3168 3169 3171 3173 3175 3176 3178 3179 3180
3098 3100 3099 3090 3076 3076 3080 3091 3098 3104 3108 3111 3113 3112 3115 3117 3119 3121 3122 3123 3124 3125 3127 3127 3130 3133 3137 3142 3146 3150 3153 3154 3157 3159 3160 3162 3163 3164 3166 3168 3170 3171 3173 3175 3177 3178 3180 3181 3182
3092 3092 3089 3078 3069 3072 3080 3090 3093 3096 3100 3104 3107 3106 3111 3114 3116 3119 3120 3121 3122 3124 3125 3126 3129 3133 3137 3141 3145 3149 3152 3154 3156 3160 3161 3163 3164 3165 3167 3169 3171 3173 3174 3176 3179 3180 3181 3183 3183
3086 3085 3081 3068 3066 3068 3075 3086 3088 3088 3092 3098 3099 3101 3106 3110 3113 3116 3117 3119 3120 3123 3124 3125 3128 3131 3136 3141 3145 3148 3151 3154 3156 3159 3161 3164 3164 3166 3168 3170 3172 3174 3175 3177 3179 3181 3183 3184 3185
3079 3078 3067 3063 3059 3061 3066 3080 3080 3084 3088 3091 3093 3096 3098 3103 3107 3113 3114 3116 3119 3120 3123 3123 3126 3129 3134 3139 3143 3147 3150 3153 3155 3158 3160 3164 3165 3167 3169 3170 3172 3175 3176 3178 3180 3182 3184 3186 3187
3070 3070 3058 3054 3052 3053 3059 3068 3076 3077 3080 3088 3086 3084 3091 3099 3103 3107 3109 3112 3115 3118 3120 3122 3123 3127 3131 3136 3141 3145 3149 3152 3154 3157 3160 3163 3165 3167 3169 3170 3172 3176 3176 3178 3181 3183 3185 3186 3188
3062 3060 3045 3043 3047 3049 3054 3059 3067 3069 3070 3079 3079 3082 3090 3094 3098 3100 3103 3106 3111 3114 3117 3119 3121 3124 3128 3133 3137 3142 3146 3150 3153 3156 3159 3161 3165 3167 3169 3171 3173 3176 3176 3178 3181 3183 3185 3188 3189
3050 3045 3031 3041 3044 3049 3048 3051 3055 3060 3061 3067 3071 3076 3082 3085 3091 3094 3098 3101 3105 3109 3112 3115 3117 3121 3125 3130 3134 3138 3142 3147 3150 3153 3158 3160 3164 3167 3169 3170 3172 3175 3177 3179 3181 3183 3186 3188 3190
3036 3028 3032 3033 3039 3042 3038 3040 3045 3050 3052 3058 3061 3065 3074 3080 3084 3089 3094 3098 3102 3105 3108 3111 3115 3119 3122 3127 3131 3135 3138 3143 3148 3151 3157 3159 3162 3165 3167 3169 3171 3175 3177 3180 3182 3184 3186 3188 3190
3024 3024 3023 3021 3024 3027 3028 3030 3034 3038 3042 3049 3052 3058 3065 3071 3076 3083 3088 3091 3095 3101 3105 3109 3111 3116 3119 3124 3129 3133 3136 3140 3146 3149 3153 3157 3160 3164 3167 3169 3171 3174 3177 3181 3182 3184 3186 3188 3190
3013 3014 3014 3011 3011 3014 3020 3020 3024 3026 3032 3043 3046 3050 3056 3064 3072 3079 3085 3088 3092 3095 3099 3103 3108 3112 3116 3120 3126 3130 3133 3138 3142 3147 3150 3156 3160 3163 3166 3168 3171 3174 3175 3180 3183 3185 3186 3188 3190
3006 3003 3001 3001 3003 3005 3008 3011 3017 3018 3028 3035 3039 3043 3047 3055 3064 3072 3076 3080 3085 3091 3095 3099 3105 3108 3113 3117 3123 3127 3132 3135 3140 3144 3148 3153 3159 3162 3164 3167 3170 3173 3175 3178 3182 3184 3186 3188 3190
2997 2994 2992 2993 2995 2996 3002 2995 2994 3015 3021 3027 3033 3036 3041 3049 3058 3064 3072 3077 3082 3087 3092 3096 3100 3105 3110 3115 3120 3125 3129 3133 3137 3141 3146 3151 3156 3159 3162 3165 3169 3172 3174 3177 3180 3183 3185 3187 3190
2994 2992 2989 2991 2990 2991 2995 2981 2995 3008 3015 3020 3029 3031 3034 3043 3050 3060 3066 3073 3079 3082 3085 3090 3095 3101 3106 3111 3116 3121 3126 3131 3135 3139 3143 3148 3153 3157 3160 3163 3167 3170 3173 3176 3179 3182 3185 3186 3189
2993 2989 2988 2986 2988 2988 2990 2984 2988 3000 3006 3013 3021 3027 3030 3035 3046 3055 3062 3067 3072 3078 3082 3086 3090 3097 3103 3108 3112 3118 3123 3128 3132 3136 3141 3145 3149 3153 3157 3161 3164 3168 3171 3174 3177 3180 3183 3185 3188
2992 2989 2986 2984 2985 2982 2984 2983 2988 2995 3003 3004 3009 3014 3018 3022 3031 3038 3046 3055 3065 3072 3077 3082 3087 3091 3098 3104 3108 3113 3119 3123 3128 3133 3138 3141 3146 3150 3154 3158 3161 3165 3168 3172 3175 3178 3181 3184 3186
2992 2988 2985 2983 2982 2979 2982 2982 2987 2990 2989 2994 2999 3005 3011 3017 3020 3028 3036 3046 3057 3064 3071 3076 3080 3085 3092 3096 3101 3107 3112 3119 3124 3129 3135 3138 3143 3146 3150 3155 3159 3163 3166 3169 3172 3175 3178 3182 3184
2988 2984 2982 2980 2978 2979 2979 2981 2978 2981 2982 2985 2991 2997 3003 3010 3014 3019 3027 3037 3045 3052 3063 3070 3074 3080 3086 3092 3100 3106 3111 3118 3124 3128 3130 3133 3138 3143 3146 3151 3155 3160 3164 3166 3169 3173 3176 3179 3182
2984 2982 2981 2980 2975 2976 2976 2978 2975 2977 2977 2979 2984 2986 2996 3003 3008 3013 3022 3030 3038 3045 3051 3058 3068 3075 3082 3089 3096 3100 3103 3108 3112 3118 3124 3130 3135 3140 3144 3148 3152 3157 3160 3164 3168 3171 3174 3178 3180
2984 2983 2978 2976 2977 2974 2973 2975 2972 2973 2973 2974 2978 2978 2988 2997 3002 3008 3015 3023 3030 3038 3044 3051 3058 3068 3076 3083 3088 3092 3097 3101 3111 3118 3123 3127 3131 3135 3140 3144 3148 3153 3157 3160 3164 3168 3172 3176 3180
2984 2975 2972 2973 2974 2974 2971 2973 2975 2970 2971 2973 2972 2972 2979 2989 2996 3002 3009 3016 3023 3031 3038 3044 3051 3059 3067 3074 3080 3087 3093 3101 3108 3111 3116 3120 3125 3129 3134 3139 3144 3148 3153 3157 3161 3165 3169 3173 3177
2982 2970 2968 2970 2972 2975 2969 2970 2976 2972 2974 2970 2970 2965 2972 2981 2990 2997 3003 3009 3016 3024 3031 3039 3046 3051 3057 3063 3072 3079 3088 3095 3097 3104 3110 3116 3121 3126 3130 3135 3140 3144 3149 3154 3158 3162 3167 3171 3174
2980 2970 2973 2977 2978 2975 2968 2969 2984 2980 2976 2974 2971 2969 2971 2974 2983 2991 2998 3004 3011 3018 3025 3032 3034 3044 3048 3055 3062 3072 3082 3087 3093 3101 3106 3111 3116 3119 3125 3131 3135 3139 3144 3148 3153 3158 3163 3167 3171
2988 2985 2986 2991 2985 2974 2971 2977 2981 2981 2977 2974 2974 2972 2969 2970 2977 2985 2993 2998 3005 3012 3018 3024 3028 3027 3033 3047 3055 3064 3074 3079 3087 3095 3101 3106 3112 3118 3123 3127 3131 3135 3140 3144 3149 3154 3159 3163 3167
2994 2990 2990 2988 2983 2981 2982 2983 2981 2980 2980 2978 2974 2971 2969 2966 2973 2981 2987 2993 2999 3006 3011 3017 3023 3021 3034 3028 3047 3054 3060 3071 3079 3087 3094 3101 3107 3111 3116 3122 3127 3131 3136 3140 3145 3149 3154 3159 3163
3000 2997 2992 2990 2992 2994 2985 2984 2983 2978 2974 2975 2973 2971 2966 2971 2970 2974 2981 2988 2994 2999 3004 3009 3014 3022 3024 3022 3029 3041 3051 3062 3069 3077 3085 3093 3100 3105 3110 3116 3121 3126 3131 3135 3140 3145 3149 3153 3158
3002 2999 2997 2995 2995 2996 2998 2987 2983 2982 2979 2973 2969 2966 2967 2970 2968 2971 2976 2981 2987 2993 2998 3003 3008 3010 3016 3025 3026 3030 3044 3055 3060 3066 3077 3085 3094 3099 3105 3110 3115 3120 3125 3130 3135 3140 3144 3148 3153
3007 3004 3001 2999 2999 2996 2995 2988 2983 2981 2979 2977 2976 2975 2973 2968 2970 2967 2970 2975 2980 2985 2990 2997 3002 3007 3012 3019 3021 3027 3033 3043 3036 3057 3068 3077 3083 3090 3098 3103 3108 3113 3118 3123 3128 3133 3138 3142 3146